Location: Coopersdale
(40.3556°N, 78.9372°W)
Time: 03:38:14
(UTC+00:00)

Tiros 1 despin weight - Pass Details

Date: 25 January 2021
Orbit: 593 x 642 km, 48.2° (Epoch: 02 March)

Event Time Altitude Azimuth Distance (km) Brightness Sun altitude
Rises 20:17:57 0° 264° (W) 2,890 ? 18.9°
Reaches altitude 10° 20:20:23 10° 271° (W) 1,977 ? 18.6°
Maximum altitude 20:24:41 41° 342° (NNW) 890 ? 18.1°
Drops below altitude 10° 20:28:56 10° 54° (NE) 1,952 ? 17.5°
Sets 20:31:20 0° 61° (ENE) 2,849 ? 17.2°
